When you browse on this site, cookies collect data to enhance your experience and personalize the content and advertising you see.
Visit our Privacy Policy to learn more. By continuing to use the site, you agree to this use of cookies and data.
  • In Austria
  • List of Countries
  • For 7 days
  • Water Temperature
  • Weather Map
  • News
  • Weather Widgets
  • user-avatar
    Login

    Hourly Weather Zasadky

    Today, 25 August, Sunday

    Time Temperature Precipitation Wind Pressure Humidity
    00:00 +17°C° 0 mm 2 mps 737 mmHg 88%
    01:00 +17°C° 0 mm 2 mps 737 mmHg 89%
    02:00 +16°C° 0 mm 1 mps 737 mmHg 90%
    03:00 +16°C° 0 mm 1 mps 737 mmHg 91%
    04:00 +16°C° 0 mm 2 mps 737 mmHg 91%
    05:00 +16°C° 0 mm 2 mps 737 mmHg 92%
    06:00 +17°C° 0 mm 2 mps 737 mmHg 88%
    07:00 +18°C° 0 mm 2 mps 737 mmHg 85%
    08:00 +20°C° 0 mm 2 mps 738 mmHg 80%
    09:00 +21°C° 0.1 mm 2 mps 738 mmHg 75%
    10:00 +24°C° 0.1 mm 3 mps 738 mmHg 70%
    11:00 +26°C° 0.1 mm 3 mps 738 mmHg 64%
    12:00 +27°C° 0.1 mm 3 mps 737 mmHg 63%
    13:00 +28°C° 0.1 mm 3 mps 737 mmHg 61%
    14:00 +28°C° 0.1 mm 3 mps 737 mmHg 60%
    15:00 +28°C° 0 mm 3 mps 737 mmHg 62%
    16:00 +28°C° 0 mm 3 mps 737 mmHg 64%
    17:00 +28°C° 0 mm 3 mps 737 mmHg 65%
    18:00 +26°C° 0.2 mm 3 mps 737 mmHg 73%
    19:00 +24°C° 0.2 mm 3 mps 737 mmHg 81%
    20:00 +21°C° 0.2 mm 2 mps 737 mmHg 88%
    21:00 +21°C° 0 mm 2 mps 737 mmHg 90%
    22:00 +20°C° 0 mm 2 mps 737 mmHg 92%
    23:00 +19°C° 0 mm 2 mps 737 mmHg 94%

    Tomorrow, 26 August, Monday

    Time Temperature Precipitation Wind Pressure Humidity
    00:00 +19°C° 0 mm 2 mps 737 mmHg 94%
    01:00 +18°C° 0 mm 2 mps 737 mmHg 94%
    02:00 +18°C° 0 mm 2 mps 737 mmHg 94%
    03:00 +17°C° 0 mm 2 mps 737 mmHg 94%
    04:00 +17°C° 0 mm 2 mps 737 mmHg 93%
    05:00 +18°C° 0 mm 1 mps 736 mmHg 93%
    06:00 +19°C° 0 mm 1 mps 736 mmHg 90%
    07:00 +20°C° 0 mm 1 mps 737 mmHg 87%
    08:00 +22°C° 0 mm 1 mps 737 mmHg 84%
    09:00 +24°C° 0 mm 1 mps 737 mmHg 76%
    10:00 +26°C° 0 mm 1 mps 737 mmHg 68%
    11:00 +28°C° 0 mm 2 mps 737 mmHg 60%
    12:00 +29°C° 0 mm 2 mps 737 mmHg 58%
    13:00 +29°C° 0 mm 2 mps 737 mmHg 55%
    14:00 +30°C° 0 mm 3 mps 737 mmHg 53%
    15:00 +30°C° 0 mm 3 mps 736 mmHg 54%
    16:00 +30°C° 0 mm 3 mps 736 mmHg 56%
    17:00 +30°C° 0 mm 3 mps 736 mmHg 57%
    18:00 +27°C° 0 mm 2 mps 736 mmHg 63%
    19:00 +25°C° 0 mm 2 mps 736 mmHg 69%
    20:00 +23°C° 0 mm 2 mps 735 mmHg 75%
    21:00 +21°C° 0 mm 2 mps 736 mmHg 76%
    22:00 +20°C° 0 mm 2 mps 736 mmHg 77%
    23:00 +20°C° 0 mm 2 mps 736 mmHg 79%

    Day after tomorrow, 27 August, Tuesday

    Time Temperature Precipitation Wind Pressure Humidity
    00:00 +19°C° 0 mm 2 mps 736 mmHg 79%
    01:00 +19°C° 0 mm 2 mps 736 mmHg 80%
    02:00 +18°C° 0 mm 2 mps 736 mmHg 81%
    03:00 +18°C° 0 mm 2 mps 736 mmHg 81%
    04:00 +18°C° 0 mm 2 mps 736 mmHg 81%
    05:00 +18°C° 0 mm 2 mps 736 mmHg 81%
    06:00 +20°C° 0 mm 1 mps 736 mmHg 78%
    07:00 +22°C° 0 mm 1 mps 736 mmHg 75%
    08:00 +23°C° 0 mm 1 mps 736 mmHg 72%
    09:00 +25°C° 0 mm 2 mps 737 mmHg 67%
    10:00 +26°C° 0 mm 2 mps 737 mmHg 62%
    11:00 +28°C° 0 mm 3 mps 737 mmHg 57%
    12:00 +29°C° 0 mm 3 mps 737 mmHg 54%
    13:00 +30°C° 0 mm 3 mps 737 mmHg 51%
    14:00 +30°C° 0 mm 4 mps 737 mmHg 48%
    15:00 +30°C° 0.1 mm 3 mps 736 mmHg 51%
    16:00 +29°C° 0.1 mm 3 mps 736 mmHg 55%
    17:00 +28°C° 0.1 mm 3 mps 736 mmHg 59%
    18:00 +26°C° 0 mm 3 mps 736 mmHg 65%
    19:00 +24°C° 0 mm 2 mps 736 mmHg 71%
    20:00 +21°C° 0 mm 2 mps 736 mmHg 77%
    21:00 +20°C° 0 mm 2 mps 736 mmHg 78%
    22:00 +20°C° 0 mm 2 mps 736 mmHg 79%
    23:00 +19°C° 0 mm 2 mps 736 mmHg 80%

    28 August, Wednesday

    Time Temperature Precipitation Wind Pressure Humidity
    00:00 +19°C° 0 mm 2 mps 736 mmHg 80%
    01:00 +18°C° 0 mm 2 mps 736 mmHg 80%
    02:00 +18°C° 0 mm 2 mps 736 mmHg 80%
    03:00 +17°C° 0 mm 2 mps 736 mmHg 79%
    04:00 +17°C° 0 mm 2 mps 735 mmHg 78%
    05:00 +17°C° 0 mm 2 mps 735 mmHg 78%
    06:00 +19°C° 0 mm 1 mps 735 mmHg 75%
    07:00 +21°C° 0 mm 1 mps 736 mmHg 72%
    08:00 +22°C° 0 mm 1 mps 736 mmHg 69%
    09:00 +24°C° 0 mm 1 mps 736 mmHg 64%
    10:00 +26°C° 0 mm 2 mps 736 mmHg 58%
    11:00 +28°C° 0 mm 2 mps 736 mmHg 52%
    12:00 +29°C° 0 mm 2 mps 736 mmHg 51%
    13:00 +30°C° 0 mm 2 mps 735 mmHg 50%
    14:00 +30°C° 0 mm 2 mps 735 mmHg 48%
    15:00 +30°C° 0.1 mm 2 mps 735 mmHg 51%
    16:00 +29°C° 0.1 mm 2 mps 735 mmHg 55%
    17:00 +29°C° 0.1 mm 2 mps 734 mmHg 58%
    18:00 +27°C° 0 mm 2 mps 734 mmHg 63%
    19:00 +25°C° 0 mm 2 mps 734 mmHg 68%
    20:00 +23°C° 0 mm 2 mps 734 mmHg 73%
    21:00 +21°C° 0 mm 2 mps 734 mmHg 74%
    22:00 +20°C° 0 mm 2 mps 734 mmHg 75%
    23:00 +19°C° 0 mm 2 mps 734 mmHg 76%

    29 August, Thursday

    Time Temperature Precipitation Wind Pressure Humidity
    00:00 +19°C° 0 mm 2 mps 734 mmHg 76%
    01:00 +18°C° 0 mm 2 mps 734 mmHg 76%
    02:00 +18°C° 0 mm 2 mps 734 mmHg 76%
    03:00 +18°C° 0 mm 2 mps 734 mmHg 76%
    04:00 +17°C° 0 mm 2 mps 734 mmHg 77%
    05:00 +17°C° 0 mm 2 mps 734 mmHg 77%
    06:00 +18°C° 0 mm 2 mps 734 mmHg 74%
    07:00 +20°C° 0 mm 2 mps 734 mmHg 72%
    08:00 +21°C° 0 mm 2 mps 734 mmHg 69%
    09:00 +24°C° 0 mm 2 mps 734 mmHg 64%
    10:00 +26°C° 0 mm 2 mps 734 mmHg 59%
    11:00 +28°C° 0 mm 2 mps 735 mmHg 53%
    12:00 +28°C° 0 mm 2 mps 734 mmHg 52%
    13:00 +29°C° 0 mm 3 mps 734 mmHg 50%
    14:00 +30°C° 0 mm 3 mps 734 mmHg 48%
    15:00 +29°C° 0 mm 3 mps 734 mmHg 51%
    16:00 +29°C° 0 mm 2 mps 733 mmHg 54%
    17:00 +28°C° 0 mm 2 mps 733 mmHg 57%
    18:00 +26°C° 0 mm 2 mps 733 mmHg 62%
    19:00 +24°C° 0 mm 2 mps 733 mmHg 67%
    20:00 +21°C° 0 mm 2 mps 733 mmHg 71%
    21:00 +21°C° 0 mm 2 mps 734 mmHg 72%
    22:00 +20°C° 0 mm 2 mps 734 mmHg 72%
    23:00 +19°C° 0 mm 2 mps 734 mmHg 73%

    30 August, Friday

    Time Temperature Precipitation Wind Pressure Humidity
    00:00 +19°C° 0 mm 2 mps 734 mmHg 73%
    01:00 +18°C° 0 mm 2 mps 734 mmHg 74%
    02:00 +19°C° 0 mm 1 mps 734 mmHg 74%
    03:00 +18°C° 0 mm 1 mps 734 mmHg 75%
    04:00 +18°C° 0 mm 1 mps 734 mmHg 76%
    05:00 +18°C° 0 mm 1 mps 734 mmHg 77%
    06:00 +19°C° 0 mm 1 mps 734 mmHg 74%
    07:00 +20°C° 0 mm 1 mps 734 mmHg 72%
    08:00 +22°C° 0 mm 1 mps 734 mmHg 70%
    09:00 +23°C° 0 mm 1 mps 735 mmHg 66%
    10:00 +25°C° 0 mm 1 mps 735 mmHg 62%
    11:00 +27°C° 0 mm 1 mps 735 mmHg 58%
    12:00 +28°C° 0.2 mm 2 mps 735 mmHg 57%
    13:00 +28°C° 0.2 mm 2 mps 735 mmHg 55%
    14:00 +29°C° 0.2 mm 2 mps 735 mmHg 54%
    15:00 +28°C° 0.1 mm 2 mps 735 mmHg 56%
    16:00 +28°C° 0.1 mm 2 mps 735 mmHg 57%
    17:00 +28°C° 0.1 mm 2 mps 735 mmHg 58%
    18:00 +26°C° 0 mm 2 mps 735 mmHg 64%
    19:00 +23°C° 0 mm 2 mps 735 mmHg 69%
    20:00 +20°C° 0 mm 2 mps 735 mmHg 75%
    21:00 +19°C° 0 mm 2 mps 735 mmHg 74%
    22:00 +18°C° 0 mm 2 mps 736 mmHg 74%
    23:00 +19°C° 0 mm 1 mps 736 mmHg 74%
    Show more